Weather observations for the past three days for
Westfield, Barnes Municipal Airport
Imperial (Metric)
Date Time (edt) Wind (mph) Vis. (mi.) Weather Sky Cond. Temperature (ºF) Relative Humidity Wind Chill (°F) Heat Index (°F) Pressure Precipitation (in)
Air Dwpt 6 hour altimeter (in) sea level (mb) 1 hr 3 hr 6 hr
Max. Min.
22 06:53 N 3 10.00 Fair CLR 66 63 90% 30.1 1018.8
22 05:53 N 6 10.00 Fair CLR 64 62.1 93% 30.09 1018.5
22 04:53 N 5 10.00 Fair CLR 64 62.1 93% 30.08 1018.2
22 03:53 Calm 7.00 A Few Clouds FEW060 FEW080 64 63 96% 30.08 1018.2
22 02:53 Calm 3.00 Fog/Mist BKN060 64 63 96% 30.08 1018.2
22 01:53 Calm 4.00 Fog/Mist FEW060 64.9 64 79 64.9 97% 30.08 1018.1 0.03
22 00:53 Calm 10.00 Fair CLR 66.9 64.9 93% 30.07 1018.0
21 23:53 Calm 10.00 Mostly Cloudy BKN065 BKN075 68 66 93% 30.07 1017.8
21 22:53 NW 3 10.00 Partly Cloudy SCT070 70 66 87% 30.06 1017.6 0.03
21 21:53 S 3 10.00 Mostly Cloudy FEW070 BKN100 69.1 66.9 93% 30.05 1017.5
21 20:53 W 3 10.00 Overcast OVC090 71.1 68 90% 30.04 1016.9 0.03
21 19:53 NW 23 G 31 10.00 Overcast and Breezy FEW043 BKN075 OVC095 79 64.9 87.1 79 62% 81 30.02 1016.4
21 18:53 W 3 10.00 Fair CLR 84 61 46% 84 29.99 1015.4
21 17:53 W 7 10.00 Fair CLR 86 60.1 42% 86 29.99 1015.2
21 16:53 W 8 10.00 Fair CLR 86 57.9 39% 85 29.99 1015.3
21 15:53 N 9 10.00 A Few Clouds FEW080 FEW100 86 60.1 42% 86 30 1015.5
21 14:53 NW 12 G 17 10.00 Fair CLR 86 59 40% 85 30 1015.6
21 13:53 W 7 10.00 A Few Clouds FEW055 84.9 59 86 71.1 42% 85 30 1015.7
21 12:53 W 8 G 17 10.00 Partly Cloudy SCT060 82.9 60.1 46% 83 30.01 1016.0
21 11:53 W 7 10.00 Fair CLR 84 60.1 44% 84 30.01 1015.8
21 10:53 NW 6 10.00 Fair CLR 82 61 49% 83 30.01 1016.0
21 09:53 S 5 10.00 Fair CLR 77 64 64% 79 30.02 1016.4
21 08:53 Calm 10.00 Fair CLR 73.9 64 71% 30.03 1016.7
21 07:53 Calm 10.00 A Few Clouds FEW110 71.1 64 71.1 66 79% 30.03 1016.7
21 06:53 Calm 8.00 A Few Clouds FEW120 68 66 93% 30.02 1016.4
21 05:53 Calm 0.75 Fog/Mist FEW003 FEW120 66.9 66 97% 30.01 1016.1
21 04:53 Calm 2.50 Fog/Mist BKN100 68 66 93% 30 1015.7
21 03:53 S 3 10.00 Overcast OVC110 68 66.9 96% 30 1015.5
21 02:53 Calm 10.00 Mostly Cloudy BKN120 68 66.9 96% 30 1015.6
21 01:53 SE 3 8.00 Fair CLR 68 66 71.1 66.9 93% 30 1015.7
21 00:53 SE 5 9.00 Fair CLR 68 66.9 96% 30.01 1015.9
20 23:53 Calm 10.00 Fair CLR 68 66.9 96% 30.01 1016.1
20 22:53 SE 3 10.00 Fair CLR 68 66.9 96% 30.02 1016.3
20 21:53 Calm 10.00 Fair CLR 69.1 66.9 93% 30.03 1016.6
20 20:53 S 5 10.00 Fair CLR 70 68 93% 30.02 1016.4
20 19:53 S 6 10.00 Fair CLR 71.1 69.1 84.9 70 94% 30.02 1016.2 0.15
20 18:53 Calm 10.00 Mostly Cloudy BKN120 70 68 93% 30.01 1016.1
20 17:53 S 10 G 20 5.00 Light Rain FEW026 BKN070 OVC120 71.1 68 90% 30.01 1016.2 0.15
20 16:53 S 7 10.00 Mostly Cloudy SCT049 BKN070 81 66 61% 83 30.01 1016.2
20 15:53 SW 12 10.00 Mostly Cloudy BKN060 BKN095 82 64 55% 84 30.02 1016.2
20 14:53 S 9 G 16 10.00 Fair CLR 84 63 49% 85 30.03 1016.8
20 13:53 SW 8 G 17 10.00 A Few Clouds FEW050 82.9 61 82.9 66.9 48% 83 30.06 1017.6
20 12:53 S 7 10.00 A Few Clouds FEW050 81 64 57% 83 30.07 1018.2
20 11:53 S 10 10.00 Partly Cloudy SCT070 81 63 54% 82 30.09 1018.6
20 10:53 S 3 10.00 Fair CLR 78.1 62.1 58% 80 30.09 1018.9
20 09:53 E 3 10.00 Fair CLR 73.9 61 64% 30.1 1019.1
20 08:53 Calm 10.00 Fair CLR 71.1 60.1 68% 30.12 1019.8
20 07:53 Calm 10.00 Fair CLR 68 60.1 68 57.9 76% 30.13 1020.1
20 06:53 Calm 10.00 Fair CLR 62.1 60.1 93% 30.13 1019.9
20 05:53 Calm 10.00 A Few Clouds FEW070 57.9 57 97% 30.12 1019.8
20 04:53 Calm 10.00 Mostly Cloudy BKN070 60.1 57.9 93% 30.11 1019.5
20 03:53 Calm 10.00 Mostly Cloudy BKN070 60.1 57.9 93% 30.11 1019.5
20 02:53 S 5 10.00 Mostly Cloudy BKN065 57.9 57 97% 30.12 1019.7
20 01:53 Calm 10.00 Fair CLR 60.1 59 78.1 60.1 96% 30.11 1019.4
20 00:53 Calm 10.00 Fair CLR 60.1 59 96% 30.12 1019.8
19 23:53 Calm 10.00 Fair CLR 62.1 60.1 93% 30.11 1019.5
19 22:53 Calm 10.00 Fair CLR 64 62.1 93% 30.11 1019.3
19 21:53 Calm 10.00 Fair CLR 66 63 90% 30.11 1019.3
19 20:53 Calm 10.00 A Few Clouds FEW055 69.1 62.1 78% 30.1 1018.9
19 19:53 NW 6 10.00 A Few Clouds FEW055 78.1 57.9 84 78.1 50% 79 30.08 1018.4
19 18:53 W 6 10.00 Partly Cloudy SCT055 82 55.9 41% 82 30.07 1018.0
19 17:53 NW 5 10.00 Mostly Cloudy BKN055 82.9 55.9 40% 82 30.06 1017.8
19 16:53 Vrbl 3 10.00 Mostly Cloudy BKN060 84 57 40% 83 30.07 1017.9
19 15:53 NE 7 10.00 Mostly Cloudy BKN055 84 59 43% 84 30.07 1017.9
19 14:53 SW 5 10.00 Mostly Cloudy BKN055 82 57 43% 82 30.08 1018.2
19 13:53 NE 6 10.00 Fair CLR 81 55.9 82 68 42% 81 30.08 1018.5
19 12:53 Calm 10.00 Fair CLR 78.1 55.9 47% 79 30.1 1019.0
19 11:53 N 8 10.00 Fair CLR 78.1 55.9 47% 79 30.1 1019.2
19 10:53 NE 8 10.00 Fair CLR 75.9 55.9 50% 78 30.11 1019.5
19 09:53 Calm 10.00 Fair CLR 73.9 55 52% 30.11 1019.5
19 08:53 NW 5 10.00 Fair CLR 72 55.9 57% 30.11 1019.5
19 07:53 N 7 10.00 Fair CLR 68 55.9 68 55.9 65% 30.11 1019.2
Date Time (edt) Wind (mph) Vis. (mi.) Weather Sky Cond. Air Dwpt Max. Min. Relative Humidity Wind Chill (°F) Heat Index (°F) altimeter (in) sea level (mb) 1 hr 3 hr 6 hr
6 hour
Temperature (ºF) Pressure Precipitation (in)